Location: Wanzleben
(52.0609°N, 11.4408°E)
Time: 05:46:36
(UTC+00:00)

OBJECT-B - Pass Details

Date: 18 September 2020
Orbit: 421 x 433 km, 97.0° (Epoch: 09 October)

Event Time Altitude Azimuth Distance (km) Brightness Sun altitude
Exits shadow 20:34:37 10° 259° (W) 1,506 3.9 -27.5°
Maximum altitude 20:35:20 11° 272° (W) 1,475 4.0 -27.6°
Drops below altitude 10° 20:36:08 10° 287° (WNW) 1,519 4.3 -27.7°
Sets 20:39:38 0° 328° (NNW) 2,396 5.8 -28.1°
